Location: Unspecified
(56.5167°N, 0.0000°E)
Time: 06:33:54
(UTC+01:00)

Cosmos 1674 - Visible Passes

Search period start: 31 October 2014 00:00
Search period end: 10 November 2014 00:00
Orbit: 514 x 540 km, 82.5° (Epoch: 29 October)

Date Brightness Start Highest point End Pass type
(mag) Time Alt. Az. Time Alt. Az. Time Alt. Az.
31 Oct 5.3 04:23:03 17° ESE 04:24:30 20° E 04:27:26 10° NE visible
31 Oct 2.8 05:58:22 30° SW 06:00:07 56° WNW 06:04:03 10° N visible
01 Nov 5.3 04:12:47 19° E 04:13:03 19° E 04:15:51 10° NE visible
01 Nov 2.7 05:48:05 54° WSW 05:48:37 60° WNW 05:52:34 10° N visible
01 Nov 4.8 07:24:22 10° WNW 07:25:28 11° NW 07:26:35 10° NW visible
02 Nov 5.6 04:02:16 17° ENE 04:02:16 17° ENE 04:04:15 10° NE visible
02 Nov 2.9 05:37:34 59° NW 05:37:34 59° NW 05:41:04 10° N visible
02 Nov 4.7 07:12:52 11° WNW 07:13:54 12° NW 07:15:21 10° NNW visible
03 Nov 5.9 03:51:35 14° ENE 03:51:35 14° ENE 03:52:37 10° NE visible
03 Nov 3.6 05:26:52 41° N 05:26:52 41° N 05:29:34 10° N visible
03 Nov 4.7 07:02:09 12° WNW 07:02:20 12° NW 07:04:02 10° NNW visible
04 Nov 6.1 03:40:46 11° NE 03:40:46 11° NE 03:40:57 10° NE visible
04 Nov 4.3 05:16:03 28° N 05:16:03 28° N 05:18:02 10° N visible
04 Nov 4.7 06:51:19 13° NW 06:51:19 13° NW 06:52:41 10° NNW visible
05 Nov 4.8 05:05:07 21° N 05:05:07 21° N 05:06:30 10° N visible
05 Nov 4.9 06:40:23 12° NW 06:40:23 12° NW 06:41:16 10° NNW visible
06 Nov 5.2 04:54:07 16° NNE 04:54:07 16° NNE 04:54:56 10° NNE visible
06 Nov 5.0 06:29:23 12° NNW 06:29:23 12° NNW 06:29:50 10° NNW visible
07 Nov 5.6 04:43:02 12° NNE 04:43:02 12° NNE 04:43:22 10° NNE visible
07 Nov 5.2 06:18:18 10° NNW 06:18:18 10° NNW 06:18:23 10° NNW visible
